Date String (YYYY-MM-DD hh:mm:ss) UTC,Instrument flags,absolute air pressure of the measurement (hPa),sample flow rate (lpm),inlet stack bypass flow (lpm),air temperature of the measurement (°C),ambient temperature measured by the external sensor (°C),aerosol sample conditioner tube jacket temperature (°C),OPC LED temperature (°C),internal box temperature (°C),relative humidity of the measurement (%),span deviation,mass concentration of particles derived from Lorenz-Mie calculation of OPC scattering (μg/m³),mass concentration of particles derived from Lorenz-Mie calculation of OPC scattering (μg/m³),mass concentration of particles derived from Lorenz-Mie calculation of OPC scattering (μg/m³)
DateTimeUTC,F1_M11,P_M11,Q1_M11,Q2_M11,T1_M11,T2_M11,T3_M11,T4_M11,T5_M11,U1_M11,ZSPAN_M11,X0_M11,X2_M11,X1_M11
2023-12-17 01:00:00,SystemResetWarning,0831.2,4.99,000.00,026.3,025.3,000.0,034.6,027.6,7.3,0000.0,0001.99,0000.33,0000.24
2023-12-17 01:01:00,SystemResetWarning,0831.2,5.00,000.00,026.3,025.3,000.0,034.6,027.6,7.4,0000.0,0001.85,0000.32,0000.23
2023-12-17 01:02:00,SystemResetWarning,0831.2,5.00,000.00,026.3,025.3,000.0,034.6,027.6,7.4,0000.0,0001.59,0000.34,0000.23
2023-12-17 01:03:00,SystemResetWarning,0831.2,4.99,000.00,026.3,025.3,000.0,034.6,027.6,7.3,0000.0,0000.58,0000.34,0000.24
2023-12-17 01:04:00,SystemResetWarning,0831.2,5.00,000.00,026.3,025.3,000.0,034.6,027.6,7.3,0000.0,0000.59,0000.34,0000.24
2023-12-17 01:05:00,SystemResetWarning,0831.2,5.00,000.00,026.3,025.3,000.0,034.6,027.6,7.3,0000.0,0000.58,0000.33,0000.24
2023-12-17 01:06:00,SystemResetWarning,0831.1,5.01,000.00,026.3,025.3,000.0,034.6,027.6,7.3,0000.0,0000.56,0000.33,0000.24
2023-12-17 01:07:00,SystemResetWarning,0831.2,5.01,000.00,026.3,025.3,000.0,034.6,027.6,7.3,0000.0,0000.51,0000.31,0000.24
2023-12-17 01:08:00,SystemResetWarning,0831.1,5.00,000.00,026.3,025.3,000.0,034.6,027.6,7.4,0000.0,0000.56,0000.32,0000.24
2023-12-17 01:09:00,SystemResetWarning,0831.1,5.00,000.00,026.3,025.3,000.0,034.6,027.6,7.3,0000.0,0000.51,0000.31,0000.24
2023-12-17 01:10:00,SystemResetWarning,0831.1,4.99,000.00,026.3,025.3,000.0,034.6,027.6,7.3,0000.0,0000.48,0000.30,0000.24
2023-12-17 01:11:00,SystemResetWarning,0831.1,4.99,000.00,026.3,025.3,000.0,034.6,027.6,7.3,0000.0,0001.50,0000.31,0000.24
2023-12-17 01:12:00,SystemResetWarning,0831.1,5.00,000.00,026.3,025.3,000.0,034.6,027.6,7.2,0000.0,0001.70,0000.31,0000.24
2023-12-17 01:13:00,SystemResetWarning,0831.2,5.00,000.00,026.3,025.3,000.0,034.6,027.5,7.2,0000.0,0001.69,0000.32,0000.23
2023-12-17 01:14:00,SystemResetWarning,0831.2,5.01,000.00,026.3,025.3,000.0,034.6,027.5,7.3,0000.0,0001.73,0000.33,0000.23
2023-12-17 01:15:00,SystemResetWarning,0831.2,5.01,000.00,026.2,025.3,000.0,034.6,027.5,7.3,0000.0,0001.77,0000.34,0000.22
2023-12-17 01:16:00,SystemResetWarning,0831.2,5.00,000.00,026.2,025.3,000.0,034.6,027.5,7.3,0000.0,0001.82,0000.35,0000.22
2023-12-17 01:17:00,SystemResetWarning,0831.2,4.99,000.00,026.2,025.2,000.0,034.6,027.5,7.2,0000.0,0001.83,0000.36,0000.22
2023-12-17 01:18:00,SystemResetWarning,0831.2,4.99,000.00,026.2,025.2,000.0,034.6,027.5,7.2,0000.0,0001.84,0000.36,0000.22
2023-12-17 01:19:00,SystemResetWarning,0831.2,4.99,000.00,026.2,025.2,000.0,034.6,027.5,7.2,0000.0,0001.79,0000.35,0000.22
2023-12-17 01:20:00,SystemResetWarning,0831.1,4.99,000.00,026.2,025.2,000.0,034.5,027.4,7.3,0000.0,0001.77,0000.34,0000.22
2023-12-17 01:21:00,SystemResetWarning,0831.1,5.01,000.00,026.2,025.2,000.0,034.5,027.4,7.3,0000.0,0001.77,0000.34,0000.21
2023-12-17 01:22:00,SystemResetWarning,0831.1,5.01,000.00,026.1,025.2,000.0,034.5,027.3,7.3,0000.0,0000.86,0000.33,0000.21
2023-12-17 01:23:00,SystemResetWarning,0831.1,5.01,000.00,026.1,025.1,000.0,034.5,027.3,7.3,0000.0,0000.52,0000.32,0000.21
2023-12-17 01:24:00,SystemResetWarning,0831.2,5.00,000.00,026.1,025.1,000.0,034.5,027.3,7.3,0000.0,0000.52,0000.31,0000.21
2023-12-17 01:25:00,SystemResetWarning,0831.1,5.00,000.00,026.1,025.1,000.0,034.5,027.2,7.4,0000.0,0000.53,0000.32,0000.22
2023-12-17 01:26:00,SystemResetWarning,0831.2,5.00,000.00,026.0,025.1,000.0,034.5,027.2,7.4,0000.0,0000.62,0000.33,0000.22
2023-12-17 01:27:00,SystemResetWarning,0831.1,5.00,000.00,026.0,025.1,000.0,034.5,027.2,7.3,0000.0,0000.59,0000.32,0000.22
2023-12-17 01:28:00,SystemResetWarning,0831.1,5.00,000.00,026.0,025.1,000.0,034.5,027.2,7.4,0000.0,0000.57,0000.31,0000.22
2023-12-17 01:29:00,SystemResetWarning,0831.1,5.00,000.00,026.0,025.0,000.0,034.4,027.2,7.3,0000.0,0000.57,0000.31,0000.22
2023-12-17 01:30:00,SystemResetWarning,0831.1,5.00,000.00,026.0,025.0,000.0,034.4,027.2,7.2,0000.0,0000.57,0000.31,0000.23
2023-12-17 01:31:00,SystemResetWarning,0831.1,5.00,000.00,026.0,025.0,000.0,034.4,027.2,7.3,0000.0,0000.58,0000.32,0000.23
2023-12-17 01:32:00,SystemResetWarning,0831.1,5.00,000.00,026.0,025.0,000.0,034.4,027.2,7.3,0000.0,0000.67,0000.32,0000.23
2023-12-17 01:33:00,SystemResetWarning,0831.1,5.00,000.00,026.0,025.0,000.0,034.4,027.2,7.3,0000.0,0000.68,0000.32,0000.23
2023-12-17 01:34:00,SystemResetWarning,0831.1,5.00,000.00,026.0,025.0,000.0,034.4,027.2,7.3,0000.0,0000.67,0000.32,0000.23
2023-12-17 01:35:00,SystemResetWarning,0831.1,5.00,000.00,026.0,024.9,000.0,034.4,027.2,7.3,0000.0,0000.61,0000.30,0000.23
2023-12-17 01:36:00,SystemResetWarning,0831.1,5.00,000.00,026.0,024.9,000.0,034.3,027.2,7.3,0000.0,0000.58,0000.28,0000.22
2023-12-17 01:37:00,SystemResetWarning,0831.1,5.00,000.00,025.9,024.9,000.0,034.3,027.2,7.3,0000.0,0000.42,0000.25,0000.22
2023-12-17 01:38:00,SystemResetWarning,0831.1,5.00,000.00,025.9,024.9,000.0,034.3,027.2,7.3,0000.0,0000.39,0000.24,0000.22
2023-12-17 01:39:00,SystemResetWarning,0831.1,5.00,000.00,025.9,024.9,000.0,034.3,027.2,7.3,0000.0,0000.39,0000.24,0000.22
2023-12-17 01:40:00,SystemResetWarning,0831.2,5.00,000.00,025.9,024.9,000.0,034.3,027.2,7.3,0000.0,0000.39,0000.24,0000.22
2023-12-17 01:41:00,SystemResetWarning,0831.1,5.01,000.00,025.9,024.9,000.0,034.3,027.2,7.3,0000.0,0000.40,0000.23,0000.22
2023-12-17 01:42:00,SystemResetWarning,0831.1,5.00,000.00,025.9,024.9,000.0,034.3,027.2,7.3,0000.0,0000.42,0000.24,0000.22
2023-12-17 01:43:00,SystemResetWarning,0831.1,5.00,000.00,025.9,024.9,000.0,034.3,027.2,7.3,0000.0,0000.32,0000.23,0000.22
2023-12-17 01:44:00,SystemResetWarning,0831.1,5.01,000.00,025.9,024.9,000.0,034.3,027.2,7.4,0000.0,0000.31,0000.23,0000.22
2023-12-17 01:45:00,SystemResetWarning,0831.1,5.00,000.00,025.9,024.8,000.0,034.3,027.3,7.4,0000.0,0000.31,0000.23,0000.22
2023-12-17 01:46:00,SystemResetWarning,0831.1,5.00,000.00,025.9,024.8,000.0,034.3,027.3,7.4,0000.0,0000.32,0000.24,0000.22
2023-12-17 01:47:00,SystemResetWarning,0831.2,5.00,000.00,025.9,024.8,000.0,034.3,027.3,7.4,0000.0,0000.34,0000.25,0000.23
2023-12-17 01:48:00,SystemResetWarning,0831.1,5.00,000.00,025.9,024.8,000.0,034.3,027.3,7.4,0000.0,0000.36,0000.26,0000.23
2023-12-17 01:49:00,SystemResetWarning,0831.1,5.00,000.00,025.9,024.8,000.0,034.3,027.2,7.4,0000.0,0000.59,0000.29,0000.24
2023-12-17 01:50:00,SystemResetWarning,0831.1,4.99,000.00,025.9,024.8,000.0,034.3,027.3,7.4,0000.0,0000.67,0000.29,0000.23
2023-12-17 01:51:00,SystemResetWarning,0831.1,5.00,000.00,025.9,024.8,000.0,034.3,027.2,7.4,0000.0,0000.69,0000.31,0000.23
2023-12-17 01:52:00,SystemResetWarning,0831.1,5.00,000.00,025.9,024.8,000.0,034.3,027.2,7.4,0000.0,0000.71,0000.32,0000.24
2023-12-17 01:53:00,SystemResetWarning,0831.1,5.00,000.00,025.9,024.8,000.0,034.3,027.2,7.4,0000.0,0000.68,0000.30,0000.23
2023-12-17 01:54:00,SystemResetWarning,0831.1,5.00,000.00,025.9,024.8,000.0,034.2,027.2,7.6,0000.0,0000.68,0000.31,0000.23
2023-12-17 01:55:00,SystemResetWarning,0831.0,5.01,000.00,025.9,024.8,000.0,034.2,027.2,7.8,0000.0,0000.69,0000.31,0000.24
2023-12-17 01:56:00,SystemResetWarning,0831.0,5.01,000.00,025.9,024.8,000.0,034.2,027.2,7.9,0000.0,0000.75,0000.33,0000.24
2023-12-17 01:57:00,SystemResetWarning,0831.1,5.00,000.00,025.9,024.8,000.0,034.2,027.2,7.6,0000.0,0000.79,0000.35,0000.25
2023-12-17 01:58:00,SystemResetWarning,0831.1,5.00,000.00,025.9,024.7,000.0,034.2,027.2,7.9,0000.0,0000.78,0000.34,0000.25
2023-12-17 01:59:00,SystemResetWarning,0831.2,4.99,000.00,025.9,024.7,000.0,034.2,027.2,8.0,0000.0,0000.78,0000.34,0000.25
